Weather History for Bay City, TX

Change the Weather History Date:

Wednesday, June 18, 2014

  Actual Average (KLBX) Record (KLBX)
Temperature  
Mean Temperature 86 °F -  
Max Temperature 91 °F 86 °F 96 °F (2008)
Min Temperature 80 °F 71 °F 66 °F (2001)
Cooling Degree Days 20    
Growing Degree Days 36 (Base 50)    
Moisture  
Dew Point 75 °F    
Average Humidity 74    
Maximum Humidity 90    
Minimum Humidity 55    
Precipitation  
Precipitation 0.00 in - - ()
Sea Level Pressure  
Sea Level Pressure 30.00 in    
Wind  
Wind Speed 11 mph (SSE)    
Max Wind Speed 18 mph    
Max Gust Speed 22 mph    
Visibility 10 miles    
Events      
Averages and records for this station are not official NWS values.
T = Trace of Precipitation, MM = Missing Value Source: NWS Daily Summary

Daily Weather History Graph

Daily Weather History Graph

Search for Another Location

Airport:

Trip Planner

Search our weather history database for the weather conditions in past years. The results will help you decide how hot, cold, wet, or windy it might be!

Date:

Astronomy

Jun. 18, 2014 Rise Set
Actual Time 6:24 AM CDT 8:24 PM CDT
Civil Twilight 5:57 AM CDT 8:51 PM CDT
Nautical Twilight 5:24 AM CDT 9:24 PM CDT
Astronomical Twilight 4:49 AM CDT 9:59 PM CDT
Moon 12:17 AM CDT (6/18) 12:22 PM CDT (6/18)
Length of Visible Light 14h 53m
Length of Day
13h 59m
Waning Gibbous, 62% of the Moon is Illuminated
Jun 18
Waning Gibbous
Jun 19
Last Quarter
Jun 27
New
Jul 5
First Quarter
Jul 12
Full

Hourly Weather History & Observations

Time (CDT) Temp. Heat Index Dew Point Humidity Pressure Visibility Wind Dir Wind Speed Gust Speed Precip Events Conditions
12:15 AM 81.0 °F 87.9 °F 77.0 °F 88% 30.01 in 10.0 mi SE 8.1 mph - N/A   Clear
12:35 AM 81.1 °F 88.7 °F 77.5 °F 89% 30.01 in 10.0 mi SE 9.2 mph - N/A   Scattered Clouds
12:55 AM 80.6 °F 87.1 °F 77.0 °F 89% 30.01 in 10.0 mi SSE 6.9 mph - N/A   Mostly Cloudy
1:15 AM 81.3 °F 89.2 °F 77.9 °F 89% 30.01 in 10.0 mi SSE 8.1 mph - N/A   Clear
1:35 AM 81.1 °F 88.9 °F 77.9 °F 90% 30.01 in 10.0 mi SSE 9.2 mph - N/A   Clear
1:55 AM 81.5 °F 89.7 °F 78.1 °F 89% 30.00 in 10.0 mi SSE 8.1 mph - N/A   Clear
2:15 AM 81.5 °F 90.0 °F 78.3 °F 90% 30.00 in 10.0 mi SE 9.2 mph - N/A   Scattered Clouds
2:35 AM 81.7 °F 90.2 °F 78.3 °F 89% 30.00 in 10.0 mi SSE 11.5 mph - N/A   Clear
2:55 AM 81.7 °F 90.0 °F 77.9 °F 88% 29.99 in 10.0 mi SSE 9.2 mph - N/A   Clear
3:15 AM 81.5 °F 89.7 °F 78.1 °F 89% 29.99 in 10.0 mi SSE 9.2 mph - N/A   Clear
3:35 AM 81.5 °F 89.5 °F 77.7 °F 88% 29.99 in 10.0 mi SSE 9.2 mph - N/A   Scattered Clouds
3:55 AM 81.5 °F 89.7 °F 77.9 °F 89% 29.99 in 10.0 mi SSE 8.1 mph - N/A   Scattered Clouds
4:15 AM 81.7 °F 90.2 °F 78.3 °F 89% 29.99 in 10.0 mi South 10.4 mph - N/A   Scattered Clouds
4:35 AM 81.7 °F 90.2 °F 78.1 °F 89% 29.99 in 10.0 mi SSE 8.1 mph - N/A   Clear
4:55 AM 81.5 °F 89.7 °F 78.1 °F 89% 29.99 in 10.0 mi SSE 5.8 mph - N/A   Clear
5:15 AM 81.5 °F 89.7 °F 78.1 °F 89% 29.99 in 10.0 mi SSE 6.9 mph - N/A   Clear
5:35 AM 81.7 °F 90.2 °F 78.1 °F 89% 29.99 in 10.0 mi SSE 9.2 mph - N/A   Clear
5:55 AM 81.9 °F 90.8 °F 78.3 °F 89% 29.99 in 10.0 mi SSE 8.1 mph - N/A   Clear
6:15 AM 81.7 °F 90.5 °F 78.6 °F 90% 29.99 in 10.0 mi South 9.2 mph - N/A   Scattered Clouds
6:35 AM 82.0 °F 91.3 °F 78.4 °F 89% 30.00 in 10.0 mi South 9.2 mph - N/A   Scattered Clouds
6:55 AM 82.4 °F 91.8 °F 78.3 °F 87% 30.00 in 10.0 mi SSE 8.1 mph - N/A   Scattered Clouds
7:15 AM 82.6 °F 91.7 °F 77.7 °F 85% 30.00 in 10.0 mi South 12.7 mph - N/A   Clear
7:35 AM 83.3 °F 92.8 °F 77.4 °F 82% 30.01 in 10.0 mi South 11.5 mph - N/A   Clear
7:55 AM 83.5 °F 92.9 °F 77.2 °F 81% 30.01 in 10.0 mi South 11.5 mph - N/A   Clear
8:15 AM 84.2 °F 94.1 °F 77.0 °F 79% 30.01 in 10.0 mi South 15.0 mph 20.7 mph N/A   Mostly Cloudy
8:35 AM 85.1 °F 94.5 °F 76.1 °F 74% 30.01 in 10.0 mi South 15.0 mph 19.6 mph N/A   Scattered Clouds
8:55 AM 86.0 °F 95.1 °F 75.2 °F 70% 30.02 in 10.0 mi South 17.3 mph 20.7 mph N/A   Scattered Clouds
9:15 AM 86.2 °F 96.0 °F 75.7 °F 71% 30.03 in 10.0 mi South 16.1 mph - N/A   Scattered Clouds
9:35 AM 87.1 °F 97.3 °F 75.9 °F 69% 30.03 in 10.0 mi South 15.0 mph 18.4 mph N/A   Scattered Clouds
9:55 AM 87.3 °F 97.2 °F 75.6 °F 68% 30.03 in 10.0 mi South 17.3 mph - N/A   Scattered Clouds
10:15 AM 88.3 °F 98.9 °F 75.7 °F 66% 30.02 in 10.0 mi South 15.0 mph 19.6 mph N/A   Scattered Clouds
10:35 AM 89.2 °F 99.0 °F 74.8 °F 62% 30.03 in 10.0 mi South 16.1 mph 21.9 mph N/A   Mostly Cloudy
10:55 AM 89.2 °F 96.9 °F 72.9 °F 58% 30.03 in 10.0 mi South 17.3 mph 20.7 mph N/A   Scattered Clouds
11:15 AM 90.1 °F 97.8 °F 72.7 °F 56% 30.03 in 10.0 mi South 16.1 mph - N/A   Clear
11:35 AM 90.5 °F 98.6 °F 72.9 °F 56% 30.03 in 10.0 mi South 15.0 mph 20.7 mph N/A   Clear
11:55 AM 90.7 °F 100.1 °F 73.9 °F 58% 30.03 in 10.0 mi South 13.8 mph - N/A   Scattered Clouds
12:15 PM 90.9 °F 100.6 °F 74.1 °F 58% 30.03 in 10.0 mi South 13.8 mph - N/A   Scattered Clouds
12:35 PM 90.9 °F 101.2 °F 74.7 °F 59% 30.02 in 10.0 mi South 18.4 mph 21.9 mph N/A   Scattered Clouds
12:55 PM 89.6 °F 98.2 °F 73.4 °F 59% 30.02 in 10.0 mi South 11.5 mph - N/A   Scattered Clouds
1:15 PM 90.7 °F 100.7 °F 74.5 °F 59% 30.02 in 10.0 mi SSE 13.8 mph 19.6 mph N/A   Mostly Cloudy
1:35 PM 91.2 °F 101.4 °F 74.5 °F 58% 30.01 in 10.0 mi SSE 12.7 mph 19.6 mph N/A   Mostly Cloudy
1:55 PM 90.9 °F 100.0 °F 73.8 °F 57% 30.01 in 10.0 mi SSE 13.8 mph 20.7 mph N/A   Scattered Clouds
2:15 PM 89.6 °F 96.2 °F 71.6 °F 55% 30.00 in 10.0 mi SSE 11.5 mph 21.9 mph N/A   Scattered Clouds
2:35 PM 90.7 °F 99.6 °F 73.8 °F 57% 30.00 in 10.0 mi SSE 13.8 mph 21.9 mph N/A   Mostly Cloudy
2:55 PM 90.1 °F 99.4 °F 73.9 °F 59% 30.00 in 10.0 mi SE 12.7 mph 20.7 mph N/A   Mostly Cloudy
3:35 PM 90.1 °F 99.4 °F 74.3 °F 59% 29.99 in 10.0 mi SE 15.0 mph 21.9 mph N/A   Scattered Clouds
3:55 PM 89.4 °F 98.3 °F 74.1 °F 60% 29.98 in 10.0 mi SSE 12.7 mph 21.9 mph N/A   Scattered Clouds
4:15 PM 88.9 °F 97.6 °F 73.8 °F 61% 29.98 in 10.0 mi SSE 13.8 mph 20.7 mph N/A   Scattered Clouds
4:35 PM 89.4 °F 97.8 °F 73.2 °F 59% 29.98 in 10.0 mi SE 13.8 mph 18.4 mph N/A   Scattered Clouds
4:55 PM 90.0 °F 97.9 °F 73.0 °F 57% 29.98 in 10.0 mi SE 15.0 mph 20.7 mph N/A   Scattered Clouds
5:15 PM 88.7 °F 95.7 °F 72.3 °F 58% 29.99 in 10.0 mi SSE 13.8 mph 18.4 mph N/A   Scattered Clouds
5:35 PM 88.3 °F 95.9 °F 72.7 °F 60% 29.98 in 10.0 mi SSE 13.8 mph 18.4 mph N/A   Scattered Clouds
5:55 PM 88.2 °F 96.4 °F 73.6 °F 62% 29.98 in 10.0 mi SSE 13.8 mph 17.3 mph N/A   Scattered Clouds
6:15 PM 87.6 °F 95.2 °F 73.0 °F 62% 29.98 in 10.0 mi SSE 11.5 mph 18.4 mph N/A   Clear
6:35 PM 86.9 °F 94.5 °F 73.4 °F 64% 29.98 in 10.0 mi SSE 13.8 mph - N/A   Scattered Clouds
6:55 PM 86.4 °F 94.2 °F 73.8 °F 66% 29.97 in 10.0 mi SE 16.1 mph 20.7 mph N/A   Scattered Clouds
7:15 PM 85.8 °F 93.4 °F 73.9 °F 67% 29.98 in 10.0 mi SSE 13.8 mph - N/A   Scattered Clouds
7:35 PM 84.7 °F 92.1 °F 73.9 °F 70% 29.97 in 10.0 mi SE 10.4 mph 16.1 mph N/A   Clear
7:55 PM 83.8 °F 90.8 °F 73.9 °F 72% 29.97 in 10.0 mi SE 11.5 mph - N/A   Clear
8:15 PM 83.1 °F 89.8 °F 74.1 °F 74% 29.97 in 10.0 mi SE 10.4 mph - N/A   Scattered Clouds
8:35 PM 82.2 °F 88.8 °F 74.7 °F 78% 29.96 in 10.0 mi SE 9.2 mph - N/A   Scattered Clouds
8:55 PM 81.5 °F 87.6 °F 74.8 °F 80% 29.96 in 10.0 mi SE 8.1 mph - N/A   Clear
9:15 PM 81.1 °F 87.2 °F 75.2 °F 82% 29.96 in 10.0 mi SE 6.9 mph - N/A   Clear
9:35 PM 80.8 °F 86.5 °F 75.2 °F 83% 29.98 in 10.0 mi SE 6.9 mph - N/A   Clear
9:55 PM 80.8 °F 86.5 °F 75.2 °F 83% 29.98 in 10.0 mi SE 8.1 mph - N/A   Clear
10:15 PM 81.0 °F 86.7 °F 75.0 °F 82% 29.99 in 10.0 mi SE 9.2 mph - N/A   Scattered Clouds
10:35 PM 81.0 °F 86.5 °F 74.7 °F 81% 30.00 in 10.0 mi SE 10.4 mph - N/A   Scattered Clouds
10:55 PM 81.3 °F 87.2 °F 74.5 °F 80% 30.01 in 10.0 mi SSE 10.4 mph - N/A   Scattered Clouds
11:15 PM 81.3 °F 87.0 °F 74.3 °F 79% 30.01 in 10.0 mi SSE 8.1 mph - N/A   Clear
11:35 PM 81.1 °F 86.8 °F 74.3 °F 80% 30.01 in 10.0 mi SSE 8.1 mph - N/A   Clear
11:55 PM 81.0 °F 86.3 °F 74.3 °F 80% 30.02 in 10.0 mi SSE 11.5 mph - N/A   Clear